Regional Weather Roundup
Issued by NWS Spokane, WA

Home | Current Version | Previous Version | Text Only | Print | Product List | Glossary On
Versions: 1 2 3 4 5 6 7 8 9 10 11 12 13 14 15 16 17 18 19 20 21 22 23 24 25 26 27 28 29 30 31 32 33 34 35 36 37 38 39 40 41 42 43 44 45 46 47 48 49 50
000
NZUS01 KOTX 200310
RWROTX
EASTERN WASHINGTON/NORTHERN IDAHO ROUNDUP
NATIONAL WEATHER SERVICE, SPOKANE WA
700 PM PST FRI DEC 19 2014

Note: "fair" indicated few or no clouds below 12,000 feet with no
significant weather and/or obstructions to visibility.

...NORTHEAST WASHINGTON AND NORTHERN IDAHO PANHANDLE...

CITY           SKY/WX    TMP DP  RH WIND       PRES   REMARKS
SPOKANE INTL   CLOUDY    39  36  89 SW15      29.97R
SPOKANE DOWNTO CLOUDY    42  36  79 SW6       30.00R
COEUR D ALENE  CLOUDY    39  36  87 S8        29.96S
DEER PARK      CLOUDY    39  35  86 SW9       29.98R
SANDPOINT      DRIZZLE   37  37 100 SW7       29.96R

...SOUTHEAST WASHINGTON AND SOUTHERN IDAHO PANHANDLE...

CITY           SKY/WX    TMP DP  RH WIND       PRES   REMARKS
WALLA WALLA    MOCLDY    41  35  79 SE5       30.03S
PULLMAN/MOSCOW PTCLDY    37  33  85 S3        30.02S
LEWISTON       FOG       36  35  96 SE3       30.05R VSB 1/4
LOWELL           N/A     39  37  92 CALM      30.10R

...COLUMBIA BASIN...

CITY           SKY/WX    TMP DP  RH WIND       PRES   REMARKS
EPHRATA        MOCLDY    33  32  96 N5        29.97R WCI  29
MOSES LAKE     MOCLDY    37  35  92 S8        29.98S
TRI CITIES     MOCLDY    44  37  76 SE5       30.03R
HERMISTON      MOCLDY    40  36  86 S7        30.03R
PENDLETON      MOCLDY    38  36  92 SE5       30.01F

...EAST SLOPES CASCADES...

CITY           SKY/WX    TMP DP  RH WIND       PRES   REMARKS
THE DALLES     MOCLDY    41  38  89 W3        30.02S
YAKIMA         CLOUDY    37  35  92 NW6       30.01R
ELLENSBURG     MOCLDY    33  30  88 NE7       29.97R WCI  27
WENATCHEE      PTCLDY    35  32  88 N7        29.98R WCI  29
OMAK           CLOUDY    37  34  89 S3        29.98S

...SOUTHERN BRITISH COLUMBIA...

CITY           SKY/WX    TMP DP  RH WIND       PRES   REMARKS
PENTICTON      MOCLDY    41  36  81 S14G25    29.96R

...WESTERN MONTANA...

CITY           SKY/WX    TMP DP  RH WIND       PRES   REMARKS
MISSOULA       CLOUDY    31  31 100 CALM      29.98S FOG

...NEIGHBORING CITIES...

CITY           SKY/WX    TMP DP  RH WIND       PRES   REMARKS
SEATTLE        MOCLDY    49  36  61 S7        29.95F
CALGARY        MOCLDY    41  25  52 W13       29.66R



USA.gov is the U.S. government's official web portal to all federal, state and local government web resources and services.